QPF
0.00 0.00 0.00 0.00 0.00 0.00 0.00 0.00 0.00 0.00 0.00 0.00 0.00 0.00 0.00 0.00 0.00 0.00 0.00 0.00 0.00 0.00 0.00 0.00 0.00 0.00 0.00 0.00 0.00 0.00 0.00 0.00 0.00 0.00 0.00 0.00 0.00 0.00 0.00 0.00 0.00 0.00 0.00
0.00 0.00 0.00 0.00 0.00 0.00 0.00 0.00 0.00 0.00 0.00 0.00 0.00 0.00 0.00 0.00 0.00 0.00 0.00 0.00 0.00 0.00 0.00 0.00 0.00 0.00 0.00 0.00 0.00 0.00 0.00 0.00 0.00 0.00 0.00 0.00 0.00 0.00 0.00 0.00 0.00 0.00 0.00
0.00 0.00 0.00 0.00 0.00 0.00 0.00 0.00 0.00 0.00 0.00 0.00 0.00 0.00 0.00 0.00 0.00 0.00 0.00 0.00 0.00 0.00 0.00 0.00 0.00 0.00 0.00 0.00 0.00 0.00 0.00 0.00 0.00 0.00 0.00 0.00 0.00 0.00 0.00 0.00 0.00 0.00 0.00
0.00 0.00 0.00 0.00 0.00 0.00 0.00 0.00 0.00 0.00 0.00 0.00 0.00 0.00 0.00 0.00 0.00 0.00 0.00 0.00 0.00 0.00 0.00 0.00 0.00 0.00 0.00 0.00 0.00 0.00 0.00 0.00 0.00 0.00 0.00 0.00 0.00 0.00 0.00 0.00 0.00 0.00 0.00
0.00 0.00 0.00 0.00 0.00 0.00 0.00 0.00 0.00 0.00 0.00 0.00 0.00 0.00 0.00 0.00 0.00 0.00 0.00 0.00 0.00 0.00 0.00 0.00 0.00 0.00 0.00 0.00 0.00 0.00 0.00 0.00 0.00 0.00 0.00 0.00 0.00 0.00 0.00 0.00 0.00 0.00 0.00
0.00 0.00 0.00 0.00 0.00 0.00 0.00 0.00 0.00 0.00 0.00 0.00 0.00 0.00 0.00 0.00 0.00 0.00 0.00 0.00 0.00 0.00 0.00 0.00 0.00 0.00 0.00 0.00 0.00 0.00 0.00 0.00 0.00 0.00 0.00 0.00 0.00 0.00 0.00 0.00 0.00 0.00 0.00
0.00 0.00 0.00 0.00 0.00 0.00 0.00 0.00 0.00 0.00 0.00 0.00 0.00 0.00 0.00 0.00 0.00 0.00 0.00 0.00 0.00 0.00 0.00 0.00 0.00 0.00 0.00 0.00 0.00 0.00 0.00 0.00 0.00 0.00 0.00 0.00 0.00 0.00 0.00 0.00 0.00 0.00 0.00
0.00 0.00 0.00 0.00 0.00 0.00 0.00 0.00 0.00 0.00 0.00 0.00 0.00 0.00 0.00 0.00 0.00 0.00 0.00 0.00 0.00 0.00 0.00 0.00 0.00 0.00 0.00 0.00 0.00 0.00 0.00 0.00 0.00 0.00 0.00 0.00 0.00 0.01 0.00 0.00 0.00 0.00 0.00
0.00 0.00 0.00 0.00 0.00 0.00 0.00 0.00 0.00 0.00 0.00 0.00 0.00 0.00 0.00 0.00 0.00 0.00 0.00 0.00 0.00 0.00 0.00 0.00 0.00 0.00 0.00 0.00 0.00 0.00 0.00 0.00 0.00 0.00 0.00 0.00 0.01 0.01 0.00 0.00 0.00 0.01 0.01
0.00 0.00 0.00 0.00 0.00 0.00 0.00 0.00 0.00 0.00 0.00 0.00 0.00 0.00 0.00 0.00 0.00 0.00 0.00 0.00 0.00 0.00 0.00 0.00 0.00 0.00 0.00 0.00 0.00 0.00 0.00 0.00 0.00 0.00 0.00 0.00 0.01 0.01 0.01 0.00 0.00 0.00 0.00
0.00 0.00 0.00 0.00 0.00 0.00 0.00 0.00 0.00 0.00 0.00 0.00 0.00 0.00 0.00 0.00 0.00 0.00 0.00 0.00 0.00 0.00 0.00 0.00 0.00 0.00 0.00 0.00 0.00 0.00 0.00 0.00 0.00 0.00 0.00 0.00 0.01 0.01 0.02 0.03 0.00 0.00 0.00
0.00 0.00 0.00 0.00 0.00 0.00 0.00 0.00 0.00 0.00 0.00 0.00 0.00 0.00 0.00 0.00 0.00 0.00 0.00 0.00 0.00 0.00 0.00 0.00 0.00 0.00 0.00 0.00 0.00 0.00 0.00 0.00 0.00 0.00 0.00 0.00 0.00 0.00 0.02 0.03 0.00 0.00 0.00
0.00 0.00 0.00 0.00 0.00 0.00 0.00 0.00 0.00 0.00 0.00 0.00 0.00 0.00 0.00 0.00 0.00 0.00 0.00 0.00 0.00 0.00 0.00 0.00 0.00 0.00 0.00 0.00 0.00 0.00 0.00 0.00 0.00 0.00 0.00 0.00 0.01 0.00 0.00 0.01 0.01 0.01 0.00
0.00 0.00 0.00 0.00 0.00 0.00 0.00 0.00 0.00 0.00 0.00 0.00 0.00 0.00 0.00 0.00 0.00 0.00 0.00 0.00 0.00 0.00 0.00 0.00 0.00 0.00 0.00 0.00 0.00 0.00 0.00 0.00 0.00 0.00 0.00 0.00 0.00 0.00 0.00 0.00 0.00 0.00 0.00
0.00 0.00 0.00 0.00 0.00 0.00 0.00 0.00 0.00 0.00 0.00 0.00 0.00 0.00 0.00 0.00 0.00 0.00 0.00 0.00 0.00 0.00 0.00 0.00 0.00 0.00 0.00 0.00 0.00 0.00 0.00 0.00 0.00 0.00 0.00 0.01 0.00 0.00 0.01 0.00 0.00 0.00 0.00
0.00 0.00 0.00 0.00 0.00 0.00 0.00 0.00 0.00 0.00 0.00 0.00 0.00 0.00 0.00 0.00 0.00 0.00 0.00 0.00 0.00 0.00 0.00 0.00 0.00 0.00 0.00 0.00 0.00 0.00 0.00 0.00 0.00 0.00 0.00 0.00 0.01 0.02 0.02 0.01 0.00 0.00 0.00
0.00 0.00 0.00 0.00 0.00 0.00 0.00 0.00 0.00 0.00 0.00 0.00 0.00 0.00 0.00 0.00 0.00 0.00 0.00 0.00 0.00 0.00 0.00 0.00 0.00 0.00 0.00 0.00 0.00 0.00 0.00 0.00 0.00 0.00 0.00 0.00 0.02 0.03 0.02 0.00 0.00 0.00 0.00
0.00 0.00 0.00 0.00 0.00 0.00 0.00 0.00 0.00 0.00 0.00 0.00 0.00 0.00 0.00 0.00 0.00 0.00 0.00 0.00 0.00 0.00 0.00 0.00 0.00 0.00 0.00 0.00 0.00 0.00 0.00 0.00 0.00 0.00 0.00 0.00 0.03 0.03 0.01 0.00 0.00 0.00 0.00
0.00 0.00 0.00 0.00 0.00 0.00 0.00 0.00 0.00 0.00 0.00 0.00 0.00 0.00 0.00 0.00 0.00 0.00 0.00 0.00 0.00 0.00 0.00 0.00 0.00 0.00 0.00 0.00 0.00 0.00 0.00 0.00 0.00 0.00 0.00 0.00 0.02 0.02 0.00 0.00 0.00 0.00 0.00
0.00 0.00 0.00 0.00 0.00 0.00 0.00 0.00 0.00 0.00 0.00 0.00 0.00 0.00 0.00 0.00 0.00 0.00 0.00 0.00 0.00 0.00 0.00 0.00 0.00 0.00 0.00 0.00 0.00 0.00 0.00 0.00 0.00 0.00 0.00 0.00 0.01 0.03 0.02 0.00 0.00 0.00 0.00
0.00 0.00 0.00 0.00 0.00 0.00 0.00 0.00 0.00 0.00 0.00 0.00 0.00 0.00 0.00 0.00 0.00 0.00 0.00 0.00 0.00 0.00 0.00 0.00 0.00 0.00 0.00 0.00 0.00 0.00 0.00 0.00 0.00 0.00 0.00 0.00 0.00 0.01 0.00 0.00 0.00 0.00 0.00
0.00 0.00 0.00 0.00 0.00 0.00 0.00 0.00 0.00 0.00 0.00 0.00 0.00 0.00 0.00 0.00 0.00 0.00 0.00 0.00 0.00 0.00 0.00 0.00 0.00 0.00 0.00 0.00 0.00 0.00 0.00 0.00 0.00 0.00 0.00 0.00 0.00 0.00 0.00 0.00 0.00 0.00 0.00
0.00 0.00 0.00 0.00 0.00 0.00 0.00 0.00 0.00 0.00 0.00 0.00 0.00 0.00 0.00 0.00 0.00 0.00 0.00 0.00 0.00 0.00 0.00 0.00 0.00 0.00 0.00 0.00 0.00 0.00 0.00 0.00 0.00 0.00 0.00 0.00 0.00 0.00 0.00 0.00 0.00 0.00 0.00
0.00 0.00 0.00 0.00 0.00 0.00 0.00 0.00 0.00 0.00 0.00 0.00 0.00 0.00 0.00 0.00 0.00 0.00 0.00 0.00 0.00 0.00 0.00 0.00 0.00 0.00 0.00 0.00 0.00 0.00 0.00 0.00 0.00 0.00 0.00 0.00 0.00 0.00 0.00 0.00 0.01 0.00 0.00
0.00 0.00 0.00 0.00 0.00 0.00 0.00 0.00 0.00 0.00 0.00 0.00 0.00 0.00 0.00 0.00 0.00 0.00 0.00 0.00 0.00 0.00 0.00 0.00 0.00 0.00 0.00 0.00 0.00 0.00 0.00 0.00 0.00 0.00 0.00 0.00 0.00 0.00 0.00 0.00 0.00 0.00 0.00
0.00 0.00 0.00 0.00 0.00 0.00 0.00 0.00 0.00 0.00 0.00 0.00 0.00 0.00 0.00 0.00 0.00 0.00 0.00 0.00 0.00 0.00 0.00 0.00 0.00 0.00 0.00 0.00 0.00 0.00 0.00 0.00 0.00 0.00 0.00 0.00 0.00 0.00 0.00 0.00 0.00 0.00 0.00
MSLP
1023.10 1023.32 1023.46 1023.56 1023.63 1023.73 1023.72 1023.80 1023.91 1023.97 1024.01 1024.08 1024.09 1024.04 1024.06 1024.03 1023.97 1023.94 1023.88 1024.00 1023.83 1023.68 1023.57 1023.47 1023.38 1023.25 1023.11 1022.93 1022.79 1022.71 1022.62 1022.51 1022.33 1022.11 1021.88 1021.64 1021.42 1021.20 1020.92 1020.64 1020.36 1020.12 1019.92
1023.22 1023.41 1023.57 1023.73 1023.85 1023.87 1023.96 1024.03 1024.11 1024.18 1024.22 1024.24 1024.15 1024.21 1024.15 1024.08 1023.98 1023.89 1023.85 1023.83 1023.89 1023.79 1023.71 1023.61 1023.49 1023.34 1023.18 1022.99 1022.82 1022.74 1022.66 1022.57 1022.35 1022.09 1021.81 1021.54 1021.27 1021.08 1020.81 1020.49 1020.26 1020.08 1019.85
1023.19 1023.35 1023.59 1023.79 1023.96 1024.03 1024.06 1024.15 1024.26 1024.32 1024.27 1024.31 1024.19 1024.18 1024.15 1024.06 1023.91 1023.84 1023.79 1023.77 1023.81 1023.91 1023.83 1023.71 1023.59 1023.42 1023.24 1023.04 1022.77 1022.67 1022.60 1022.50 1022.28 1022.00 1021.72 1021.48 1021.22 1020.92 1020.66 1020.32 1020.04 1019.81 1019.62
1023.20 1023.32 1023.42 1023.60 1023.88 1024.00 1024.10 1024.18 1024.27 1024.25 1024.24 1024.23 1024.17 1024.05 1024.02 1023.98 1023.85 1023.78 1023.78 1023.75 1023.77 1023.76 1023.80 1023.75 1023.69 1023.60 1023.43 1023.18 1022.98 1022.78 1022.61 1022.48 1022.20 1021.84 1021.54 1021.22 1021.00 1020.75 1020.51 1020.20 1019.89 1019.56 1019.35
1023.00 1023.16 1023.31 1023.55 1023.82 1023.94 1024.03 1024.13 1024.32 1024.43 1024.31 1024.22 1024.13 1023.98 1023.89 1023.86 1023.82 1023.81 1023.68 1023.72 1023.78 1023.77 1023.72 1023.82 1023.85 1023.77 1023.59 1023.34 1023.14 1022.91 1022.68 1022.48 1022.26 1021.91 1021.37 1021.07 1020.71 1020.39 1020.13 1019.89 1019.62 1019.34 1019.07
1023.09 1023.21 1023.35 1023.49 1023.71 1023.86 1024.04 1024.23 1024.37 1024.54 1024.51 1024.37 1024.17 1023.87 1023.71 1023.68 1023.75 1023.64 1023.50 1023.52 1023.52 1023.59 1023.64 1023.68 1023.63 1023.56 1023.59 1023.42 1023.20 1022.95 1022.74 1022.46 1022.17 1021.94 1021.50 1021.03 1020.64 1020.20 1019.86 1019.53 1019.19 1018.93 1018.76
1023.01 1023.19 1023.36 1023.61 1023.82 1023.85 1023.97 1024.19 1024.41 1024.48 1024.39 1024.47 1024.20 1023.60 1023.33 1023.35 1023.37 1023.31 1023.27 1023.18 1023.21 1023.31 1023.42 1023.46 1023.47 1023.42 1023.33 1023.44 1023.25 1022.97 1022.72 1022.45 1022.11 1021.70 1021.33 1020.91 1020.58 1020.23 1019.83 1019.28 1018.71 1018.38 1018.27
1023.12 1023.26 1023.39 1023.54 1023.73 1023.91 1024.04 1024.18 1024.31 1024.34 1024.44 1024.47 1024.27 1024.30 1023.63 1023.28 1023.11 1023.17 1023.22 1023.13 1023.03 1023.16 1023.15 1023.18 1023.15 1023.09 1023.13 1023.12 1023.10 1022.98 1022.79 1022.58 1022.10 1021.61 1021.18 1020.72 1020.48 1020.29 1019.87 1019.15 1018.35 1017.99 1018.09
1022.91 1023.17 1023.38 1023.53 1023.67 1023.88 1023.89 1024.00 1024.13 1024.27 1024.25 1024.39 1024.47 1024.37 1024.16 1023.74 1023.53 1023.10 1023.04 1023.06 1023.02 1022.99 1022.89 1022.96 1022.92 1022.84 1022.85 1022.79 1022.82 1022.75 1022.69 1022.53 1022.09 1021.55 1021.11 1020.58 1020.28 1020.38 1019.97 1019.48 1018.81 1018.70 1018.70
1023.01 1023.23 1023.37 1023.46 1023.54 1023.67 1023.71 1023.75 1023.89 1024.07 1024.27 1024.12 1024.37 1024.30 1024.31 1024.19 1023.85 1023.13 1022.90 1022.84 1022.92 1022.81 1022.65 1022.60 1022.56 1022.52 1022.56 1022.53 1022.53 1022.55 1022.47 1022.30 1021.95 1021.43 1020.92 1020.52 1020.25 1020.28 1020.11 1019.76 1019.51 1019.23 1019.09
1022.87 1022.97 1023.14 1023.28 1023.31 1023.45 1023.43 1023.51 1023.63 1023.81 1023.89 1023.84 1023.82 1023.89 1024.03 1024.09 1024.11 1023.92 1022.85 1022.59 1022.61 1022.43 1022.37 1022.26 1022.17 1022.23 1022.27 1022.28 1022.24 1022.31 1022.27 1022.16 1021.84 1021.39 1020.84 1020.42 1020.17 1020.21 1020.20 1020.10 1019.94 1019.68 1019.53
1022.77 1022.77 1023.00 1023.09 1023.10 1023.10 1023.08 1023.13 1023.27 1023.40 1023.44 1023.45 1023.47 1023.46 1023.40 1023.32 1023.40 1023.58 1023.32 1022.64 1022.44 1022.09 1022.10 1021.98 1021.94 1021.86 1021.93 1022.02 1022.15 1022.19 1022.11 1022.04 1021.79 1021.32 1020.77 1020.27 1020.14 1019.95 1019.95 1019.98 1019.96 1019.84 1019.70
1022.85 1022.86 1022.84 1022.75 1022.70 1022.69 1022.70 1022.73 1022.70 1022.70 1022.75 1022.84 1022.83 1022.82 1022.93 1022.76 1022.77 1022.78 1022.75 1022.43 1022.26 1022.05 1021.82 1021.61 1021.53 1021.56 1021.62 1021.69 1021.75 1021.91 1021.82 1021.79 1021.60 1021.26 1020.77 1020.32 1020.26 1020.05 1019.90 1019.84 1019.88 1019.89 1019.78
1023.73 1023.42 1023.09 1022.83 1022.61 1022.50 1022.41 1022.36 1022.22 1022.06 1022.03 1021.99 1021.94 1022.01 1021.97 1022.05 1022.20 1022.05 1021.98 1022.18 1021.92 1021.94 1021.77 1021.14 1021.12 1021.01 1021.18 1021.39 1021.49 1021.62 1021.55 1021.71 1021.50 1021.12 1020.78 1020.38 1020.30 1020.22 1020.09 1019.91 1019.98 1019.94 1020.04
1024.02 1023.72 1023.38 1023.00 1022.62 1022.34 1022.22 1022.09 1021.87 1021.57 1021.56 1021.35 1021.18 1021.04 1021.15 1021.14 1021.24 1021.29 1021.37 1021.40 1021.35 1021.11 1020.75 1020.57 1020.68 1020.72 1020.89 1021.16 1021.25 1021.32 1021.29 1021.33 1021.29 1021.07 1020.70 1020.32 1020.19 1020.16 1020.01 1020.04 1020.17 1020.43 1020.64
1024.43 1024.07 1023.61 1023.11 1022.59 1022.16 1021.84 1021.62 1021.41 1021.13 1021.03 1020.76 1020.58 1020.49 1020.34 1020.17 1020.13 1020.25 1020.34 1020.53 1020.69 1020.64 1020.26 1020.27 1020.35 1020.42 1020.59 1020.94 1020.79 1021.05 1020.87 1020.77 1020.55 1020.71 1020.66 1020.27 1020.05 1020.07 1020.07 1020.01 1020.41 1020.71 1020.76
1024.62 1024.28 1023.93 1023.52 1023.07 1022.49 1021.84 1021.52 1021.19 1020.83 1020.55 1020.25 1020.04 1019.83 1019.64 1019.45 1019.30 1019.31 1019.42 1019.52 1019.69 1020.01 1019.79 1019.44 1019.86 1020.01 1020.33 1020.65 1020.37 1020.74 1020.63 1020.48 1020.35 1020.47 1020.56 1020.15 1019.90 1019.85 1020.01 1020.13 1020.31 1020.73 1020.98
1024.86 1024.52 1024.11 1023.64 1023.19 1022.80 1022.24 1021.69 1021.18 1020.71 1020.31 1019.76 1019.38 1019.16 1018.91 1018.71 1018.51 1018.39 1018.52 1018.41 1018.39 1018.53 1018.71 1018.76 1019.11 1019.55 1019.81 1019.80 1019.80 1020.20 1020.31 1020.22 1020.31 1020.28 1020.38 1020.15 1019.80 1019.70 1019.79 1020.02 1020.38 1020.68 1020.96
1025.00 1024.56 1024.20 1023.80 1023.39 1022.94 1022.43 1021.83 1021.23 1020.60 1020.06 1019.52 1019.04 1018.57 1018.18 1018.09 1017.86 1017.75 1017.56 1017.41 1017.60 1017.25 1017.59 1017.87 1018.01 1018.47 1018.99 1019.43 1019.59 1019.95 1020.22 1020.20 1020.33 1020.39 1020.29 1019.96 1019.71 1019.13 1019.33 1019.89 1020.40 1020.89 1020.77
1024.95 1024.45 1024.13 1023.73 1023.31 1022.78 1022.21 1021.60 1021.13 1020.52 1019.87 1019.18 1018.68 1018.30 1017.84 1017.49 1017.04 1016.73 1016.49 1016.18 1016.29 1016.57 1016.97 1017.14 1017.64 1018.02 1018.33 1018.53 1018.89 1019.45 1019.66 1019.75 1019.89 1019.80 1019.89 1019.86 1019.82 1019.63 1019.52 1019.90 1020.75 1020.94 1020.81
1025.07 1024.63 1024.17 1023.64 1023.29 1022.87 1022.27 1021.79 1021.11 1020.49 1019.84 1018.94 1018.08 1017.37 1016.89 1016.62 1016.26 1016.09 1015.79 1015.50 1015.72 1015.60 1015.58 1016.22 1016.51 1017.01 1017.50 1017.78 1018.05 1018.57 1018.90 1019.23 1019.84 1019.94 1019.97 1019.67 1019.36 1019.53 1020.06 1020.53 1020.96 1021.02 1021.27
1025.16 1024.71 1024.24 1023.81 1023.21 1022.67 1022.17 1021.59 1021.02 1020.26 1019.62 1018.81 1017.86 1017.00 1016.24 1015.54 1015.04 1014.78 1014.56 1014.46 1014.37 1014.53 1014.70 1015.14 1015.66 1016.26 1016.67 1017.30 1017.46 1017.92 1018.61 1019.32 1019.67 1020.14 1020.15 1019.98 1019.46 1019.91 1020.58 1020.89 1021.05 1021.33 1021.80
1025.38 1024.87 1024.22 1023.58 1022.92 1022.36 1021.83 1021.31 1020.80 1020.00 1019.18 1018.56 1017.63 1016.63 1015.76 1014.87 1014.24 1014.05 1013.60 1013.54 1013.35 1013.56 1013.43 1014.09 1015.19 1015.87 1016.30 1016.61 1017.33 1017.84 1018.43 1019.16 1018.93 1019.69 1020.02 1020.40 1020.47 1020.44 1020.71 1020.99 1021.37 1021.88 1022.23
1025.32 1024.71 1024.00 1023.36 1022.70 1022.10 1021.53 1020.82 1020.19 1019.34 1018.47 1017.56 1016.90 1016.00 1015.14 1014.22 1013.54 1013.01 1013.05 1012.86 1013.17 1013.21 1013.45 1014.43 1014.85 1015.79 1016.25 1016.51 1016.81 1017.41 1018.09 1018.64 1019.13 1019.57 1019.70 1020.64 1021.17 1021.28 1021.21 1021.49 1021.98 1022.43 1022.66
1024.91 1024.38 1023.67 1022.97 1022.20 1021.46 1020.90 1020.35 1019.59 1018.51 1017.56 1016.58 1015.52 1015.10 1014.13 1012.98 1012.61 1012.51 1012.84 1013.05 1013.54 1013.90 1014.15 1014.35 1015.04 1015.72 1016.37 1016.71 1016.80 1017.24 1018.06 1018.56 1019.12 1019.56 1019.96 1020.36 1021.22 1021.69 1021.98 1022.18 1022.52 1022.99 1023.12
1024.76 1023.99 1023.19 1022.64 1021.84 1020.80 1020.35 1019.80 1019.17 1018.17 1016.94 1016.23 1015.05 1014.09 1013.20 1012.55 1011.89 1011.87 1012.23 1013.09 1013.94 1014.65 1014.65 1015.25 1015.81 1016.38 1016.71 1017.05 1017.16 1016.98 1017.56 1017.93 1018.55 1019.51 1019.72 1020.26 1020.95 1021.40 1022.46 1022.99 1023.12 1023.55 1023.51
Thickness
5671 5669 5667 5666 5664 5663 5663 5661 5660 5658 5657 5656 5655 5655 5654 5653 5652 5651 5650 5649 5647 5646 5644 5643 5642 5641 5640 5640 5639 5638 5637 5636 5636 5636 5636 5636 5636 5637 5638 5639 5641 5642 5642
5667 5665 5663 5661 5659 5659 5657 5656 5655 5654 5653 5651 5651 5649 5649 5648 5647 5647 5646 5644 5642 5640 5638 5637 5635 5634 5633 5632 5632 5630 5629 5628 5628 5627 5628 5628 5628 5628 5629 5631 5632 5632 5633
5663 5661 5659 5657 5655 5654 5653 5651 5650 5649 5648 5648 5647 5646 5645 5644 5643 5642 5640 5638 5636 5634 5632 5630 5628 5627 5626 5626 5625 5623 5622 5620 5619 5619 5618 5618 5618 5619 5620 5622 5623 5624 5625
5659 5657 5656 5654 5652 5650 5649 5647 5645 5645 5644 5643 5642 5641 5640 5639 5637 5635 5633 5632 5630 5627 5625 5623 5621 5619 5617 5616 5615 5614 5613 5612 5611 5611 5611 5610 5610 5610 5610 5612 5613 5614 5615
5656 5654 5652 5650 5648 5646 5644 5643 5641 5639 5639 5638 5637 5636 5635 5633 5631 5629 5627 5625 5622 5620 5618 5615 5612 5610 5608 5607 5605 5604 5603 5601 5600 5600 5602 5602 5602 5603 5603 5603 5603 5604 5605
5651 5649 5647 5645 5643 5641 5639 5637 5635 5633 5632 5631 5631 5631 5631 5628 5626 5624 5622 5619 5616 5613 5609 5606 5604 5602 5600 5598 5596 5594 5592 5591 5591 5590 5590 5591 5592 5594 5594 5595 5595 5595 5595
5646 5644 5641 5639 5637 5635 5634 5631 5629 5627 5627 5623 5624 5627 5626 5623 5620 5617 5614 5612 5608 5605 5601 5598 5594 5592 5589 5587 5585 5584 5582 5581 5580 5581 5580 5580 5582 5582 5582 5584 5587 5587 5586
5640 5637 5635 5633 5630 5628 5627 5625 5622 5621 5618 5614 5616 5611 5617 5617 5613 5609 5604 5601 5599 5595 5592 5589 5587 5584 5579 5576 5574 5573 5571 5569 5569 5569 5569 5568 5567 5567 5568 5571 5575 5575 5573
5634 5630 5628 5626 5624 5622 5621 5618 5616 5613 5612 5606 5603 5603 5602 5605 5599 5599 5595 5591 5588 5584 5582 5579 5577 5573 5570 5567 5564 5562 5559 5557 5556 5556 5555 5556 5555 5551 5552 5554 5556 5555 5554
5626 5624 5621 5620 5618 5615 5613 5611 5608 5605 5600 5600 5593 5590 5586 5585 5590 5593 5587 5581 5576 5573 5571 5568 5566 5562 5558 5555 5553 5550 5547 5544 5542 5542 5542 5542 5540 5537 5536 5538 5536 5535 5534
5620 5618 5615 5613 5610 5608 5605 5602 5599 5596 5592 5591 5587 5583 5577 5572 5568 5567 5578 5575 5566 5564 5559 5557 5555 5550 5545 5542 5539 5536 5533 5529 5527 5527 5529 5528 5527 5523 5520 5519 5518 5517 5516
5611 5609 5606 5603 5601 5599 5597 5594 5590 5586 5583 5580 5576 5572 5570 5568 5563 5555 5554 5560 5556 5555 5549 5546 5543 5539 5534 5529 5525 5521 5518 5515 5513 5514 5515 5515 5513 5511 5507 5504 5503 5500 5499
5602 5598 5596 5594 5592 5590 5587 5584 5582 5579 5575 5571 5568 5565 5559 5558 5553 5550 5546 5548 5543 5542 5539 5536 5531 5526 5521 5516 5511 5507 5505 5502 5501 5500 5499 5499 5497 5495 5492 5488 5486 5484 5482
5583 5582 5582 5582 5580 5578 5576 5573 5573 5571 5567 5565 5563 5558 5554 5550 5544 5541 5537 5531 5532 5525 5524 5527 5521 5516 5509 5503 5498 5494 5491 5488 5486 5486 5485 5484 5481 5478 5475 5473 5470 5468 5464
5568 5568 5568 5568 5568 5567 5564 5562 5562 5561 5556 5556 5554 5551 5546 5542 5536 5530 5526 5521 5518 5520 5521 5517 5510 5502 5496 5490 5485 5481 5477 5475 5473 5471 5471 5470 5467 5464 5462 5459 5455 5449 5444
5552 5552 5553 5553 5554 5554 5552 5551 5550 5549 5546 5545 5543 5540 5537 5534 5529 5523 5517 5511 5505 5504 5506 5503 5495 5489 5482 5475 5472 5465 5463 5463 5463 5459 5456 5455 5453 5451 5448 5446 5439 5432 5430
5539 5538 5537 5537 5537 5537 5538 5538 5537 5536 5534 5533 5530 5528 5525 5522 5520 5515 5509 5503 5498 5489 5489 5493 5482 5475 5469 5461 5457 5451 5448 5449 5447 5445 5441 5441 5440 5438 5433 5430 5426 5418 5414
5524 5523 5522 5522 5522 5520 5520 5521 5522 5521 5520 5520 5519 5517 5515 5512 5510 5506 5500 5496 5491 5485 5479 5479 5472 5461 5455 5452 5445 5438 5435 5434 5432 5430 5428 5428 5426 5423 5422 5417 5412 5407 5403
5507 5507 5506 5505 5504 5503 5502 5502 5503 5505 5505 5506 5506 5507 5506 5501 5498 5492 5489 5485 5478 5476 5470 5465 5462 5452 5443 5437 5431 5424 5419 5416 5414 5413 5414 5417 5413 5414 5412 5407 5401 5393 5395
5491 5491 5489 5488 5486 5485 5485 5486 5487 5489 5492 5494 5493 5490 5489 5486 5484 5481 5477 5476 5469 5462 5454 5449 5443 5437 5430 5424 5419 5412 5407 5404 5403 5403 5401 5403 5399 5398 5398 5395 5386 5385 5387
5474 5473 5472 5471 5468 5466 5466 5467 5469 5471 5473 5476 5477 5477 5475 5471 5467 5463 5457 5458 5450 5447 5444 5435 5430 5424 5418 5414 5410 5404 5400 5395 5389 5386 5386 5391 5392 5387 5383 5380 5375 5376 5374
5455 5454 5453 5452 5452 5450 5447 5448 5449 5455 5455 5455 5459 5460 5458 5458 5454 5448 5443 5439 5439 5430 5425 5422 5418 5412 5410 5403 5399 5396 5389 5382 5380 5373 5372 5377 5381 5375 5369 5368 5367 5366 5363
5437 5438 5439 5440 5440 5436 5431 5431 5429 5431 5435 5434 5433 5433 5434 5434 5432 5425 5423 5416 5416 5413 5414 5411 5403 5400 5396 5392 5387 5382 5378 5372 5376 5366 5363 5361 5361 5361 5358 5358 5357 5353 5352
5421 5422 5423 5422 5421 5415 5411 5410 5409 5408 5410 5410 5405 5403 5402 5406 5405 5402 5398 5400 5394 5399 5402 5395 5392 5388 5383 5379 5377 5372 5366 5364 5359 5357 5356 5351 5345 5345 5348 5347 5344 5343 5343
5407 5406 5405 5405 5404 5399 5392 5387 5388 5390 5391 5391 5390 5384 5383 5388 5389 5385 5379 5378 5378 5378 5380 5384 5379 5375 5369 5366 5366 5365 5357 5355 5351 5349 5346 5344 5337 5334 5334 5334 5334 5332 5332
5388 5389 5388 5384 5384 5385 5375 5369 5365 5367 5374 5372 5376 5374 5374 5376 5379 5377 5373 5368 5361 5358 5362 5363 5361 5359 5357 5354 5355 5357 5352 5352 5348 5341 5340 5336 5330 5327 5323 5322 5324 5323 5323